Regional Weather Roundup
Issued by NWS

Home | Current Version | Previous Version | Text Only | Print | Product List | Glossary Off
Versions: 1 2 3 4 5 6 7 8 9 10 11 12 13 14 15 16 17 18 19 20 21 22 23 24 25 26 27 28 29 30 31 32 33 34 35 36 37 38 39 40 41 42 43 44 45 46 47 48 49 50

000
ASUS45 KPSR 230100
RWRAZ

PRELIMINARY ARIZONA REGIONAL HOURLY WEATHER ROUNDUP
NATIONAL WEATHER SERVICE PHOENIX AZ
600 PM MST WED OCT 22 2014

NOTE: FAIR INDICATES FEW OR NO CLOUDS BELOW 12,000 FEET WITH NO
SIGNIFICANT WEATHER AND/OR OBSTRUCTIONS TO VISIBILITY.

AZZ001>003-036-230200-
NORTHWEST ARIZONA

CITY           SKY/WX    TMP DP  RH WIND       PRES   REMARKS
KINGMAN        PTCLDY    70  39  32 S7        30.06R
$$

AZZ004>008-015-016-018-230200-
NORTH CENTRAL ARIZONA

CITY           SKY/WX    TMP DP  RH WIND       PRES   REMARKS
GRAND CANYON   PTCLDY    54  33  45 CALM      30.24R
PRESCOTT       PTCLDY    71  35  26 CALM      30.14R
FLAGSTAFF      PTCLDY    57  35  43 SW5       30.26R
PAYSON         CLEAR     66  43  42 CALM      30.17R
PAGE           CLEAR     71  36  27 NE5       30.08R
$$

AZZ009>014-017-230200-
NORTHEAST ARIZONA

CITY           SKY/WX    TMP DP  RH WIND       PRES   REMARKS
WINSLOW        NOT AVBL
SAINT JOHNS    CLEAR     65  39  38 NW7       30.16R
WINDOW ROCK    CLEAR     59  30  33 S3        30.22R
$$

AZZ023-230200-
GREATER PHOENIX AREA

CITY           SKY/WX    TMP DP  RH WIND       PRES   REMARKS
PHOENIX        PTCLDY    87  49  26 SW3       29.89R
GLENDALE       PTCLDY    88  48  25 CALM      29.91S
LUKE AFB       CLEAR     86  48  26 CALM      29.90R
DEER VALLEY    CLEAR     85  47  26 SW3       29.92R
SCOTTSDALE     CLEAR     85  48  27 CALM      29.94R
MESA-GATEWAY   PTCLDY    84  48  28 W5        29.93S
CHANDLER       PTCLDY    86  48  26 VRB5      29.91S
$$

AZZ027-028-230200-
SOUTHWEST MARICOPA COUNTY AND PINAL COUNTY

CITY           SKY/WX    TMP DP  RH WIND       PRES   REMARKS
CASA GRANDE    CLEAR     82  46  28 CALM      29.93R
GILA BEND      FAIR      85  44  23 N2        29.90S
$$

AZZ503-504-507>509-230200-
SOUTHEAST ARIZONA

CITY           SKY/WX    TMP DP  RH WIND       PRES   REMARKS
TUCSON         CLEAR     83  45  26 N8        29.99R
DAVIS-MONTHAN  CLEAR     80  46  30 N7        29.98R
NOGALES        CLEAR     75  43  31 N3        30.05R
SIERRA VISTA   CLEAR     72  41  33 E5        30.11R
SAFFORD        CLEAR     76  49  38 CALM      30.01R
$$

AZZ020-021-025-026-031-230200-
SOUTHWEST ARIZONA

CITY           SKY/WX    TMP DP  RH WIND       PRES   REMARKS
YUMA           PTCLDY    91  45  20 W3        29.84S
$$

CAZ031-033-041-043-047-048-061-230200-
SOUTHERN CALIFORNIA

CITY           SKY/WX    TMP DP  RH WIND       PRES   REMARKS
DOWNTOWN L.A.  PTCLDY    74  58  57 W6        29.89R
L.A. AIRPORT   PTCLDY    70  64  81 W13       29.90R
SAN DIEGO      MOCLDY    72  63  73 NW7       29.91S
BURBANK        PTCLDY    77  50  38 S6        29.90R
ONTARIO        MOCLDY    82  55  39 SW10      29.90R
RIVERSIDE      PTCLDY    82  51  34 W8        29.90R
PALM SPRINGS   PTCLDY    90  36  14 E6        29.89R
EL CENTRO NAS  PTCLDY    90  49  24 NW3       29.84R
IMPERIAL       PTCLDY    88  50  27 W6        29.83S
BLYTHE         PTCLDY    90  45  21 E5        29.86S
$$

NVZ020-UTZ003-230200-
SOUTHERN NEVADA-UTAH

CITY           SKY/WX    TMP DP  RH WIND       PRES   REMARKS
LAS VEGAS      NOT AVBL
SALT LAKE CITY MOCLDY    57  35  43 NW7       30.16R
$$

NMZ009-TXZ055-230200-
NEW MEXICO-WEST TEXAS

CITY           SKY/WX    TMP DP  RH WIND       PRES   REMARKS
ALBUQUERQUE    PTCLDY    70  38  31 CALM      30.14R
EL PASO        PTCLDY    73  53  49 N7        30.08R
$$


........................KEY........................
SKY/WX - SKY CONDITION/WEATHER
TMP    - TEMPERATURE IN FAHRENHEIT
DP     - DEW POINT IN FAHRENHEIT
RH     - RELATIVE HUMIDITY IN PERCENT
WIND   - DIRECTION AND SPEED IN MILES PER HOUR (MPH)
VRB    - VARIABLE WIND DIRECTION
PRES   - MEAN SEA LEVEL PRESSURE IN INCHES OF MERCURY
         F - FALLING PRESSURE   R - RISING PRESSURE
         S - STEADY PRESSURE
VSB    - VISIBILITY IN MILES
HX     - HEAT INDEX IN FAHRENHEIT
WCI    - WIND CHILL INDEX IN FAHRENHEIT
TC     - TEMPERATURE IN CELSIUS WHICH IS ALSO KNOWN AS
         TEMPERATURE IN CENTIGRADE
AFB    - AIR FORCE BASE
         LUKE AFB IS LUKE AIR FORCE BASE
         DAVIS-MONTHAN IS DAVIS-MONTHAN AIR FORCE BASE
NAS    - NAVAL AIR STATION
         EL CENTRO NAS IS EL CENTRO NAVAL AIR STATION
N/A    - NOT AVAILABLE



USA.gov is the U.S. government's official web portal to all federal, state and local government web resources and services.